Durango, Mexico

6:33 AM EST on August 30, 2016 (GMT -0500)
Durango

Weather History for MMDO - October, 2012

Change the Weather History Date:

Friday, October 5, 2012

  Actual Average Record
Temperature  
Mean Temperature 62 °F -  
Max Temperature 86 °F 76 °F 87 °F (2007)
Min Temperature 39 °F 45 °F 39 °F (2012)
Degree Days  
Heating Degree Days 2    
Growing Degree Days 12 (Base 50)    
Moisture  
Dew Point 34 °F    
Average Humidity 35    
Maximum Humidity 87    
Minimum Humidity 13    
Precipitation  
Precipitation 0.00 in - - ()
Sea Level Pressure  
Sea Level Pressure 30.12 in    
Wind  
Wind Speed 2 mph ()    
Max Wind Speed 12 mph    
Max Gust Speed -    
Visibility 13.3 miles    
Events      
Averages and records for this station are not official NWS values.
T = Trace of Precipitation, MM = Missing Value Source: Averaged Metar Reports

Daily Weather History Graph

Daily Weather History Graph

Search for Another Location

Airport or City:

Trip Planner

Search our weather history database for the weather conditions in past years. The results will help you decide how hot, cold, wet, or windy it might be!

Date:

Astronomy

Oct. 05, 2012 Rise Set
Actual Time 7:51 AM CDT 7:40 PM CDT
Civil Twilight 7:29 AM CDT 8:03 PM CDT
Nautical Twilight 7:02 AM CDT 8:29 PM CDT
Astronomical Twilight 6:36 AM CDT 8:55 PM CDT
Moon 11:35 PM CDT (10/5) 12:32 PM CDT (10/5)
Length of Visible Light 12h 34m
Length of Day
11h 48m
Waning Gibbous, 74% of the Moon is Illuminated
Oct 5
Waning Gibbous
Oct 8
Last Quarter
Oct 15
New
Oct 21
First Quarter
Oct 29
Full

Hourly Weather History & Observations

Time (CDT) Temp. Windchill Dew Point Humidity Pressure Visibility Wind Dir Wind Speed Gust Speed Precip Events Conditions
12:50 AM 58 °F - 39 °F 37% 29.89 in 6 mi Calm Calm - -  
3:57 AM 54 °F - 37 °F 40% 29.95 in 6 mi Calm Calm - -  
6:01 AM 41.0 °F - 35.6 °F 81% 30.34 in 8.0 mi Calm Calm - N/A   Clear
6:43 AM 39.2 °F 35.9 °F 35.6 °F 87% 30.05 in 8.0 mi NE 4.6 mph - N/A   Clear
6:50 AM 50 °F - 36 °F 48% 30.04 in 9 mi West 2.2 mph - -  
7:41 AM 39.2 °F - 33.8 °F 81% 30.36 in 14.0 mi Calm Calm - N/A   Clear
8:42 AM 44.6 °F - 37.4 °F 76% 30.37 in 14.0 mi Calm Calm - N/A   Clear
9:41 AM 57.2 °F - 39.2 °F 51% 30.04 in 14.0 mi Calm Calm - N/A   Clear
9:55 AM 56 °F - 42 °F 50% 30.14 in 19 mi ESE 2.2 mph - -  
10:40 AM 64.4 °F - 33.8 °F 32% 30.39 in 14.0 mi Calm Calm - N/A   Clear
11:49 AM 71.6 °F - 33.8 °F 25% 30.38 in 14.0 mi Calm Calm - N/A   Clear
12:40 PM 75 °F - 40 °F 18% 30.09 in 19 mi SSW 2.2 mph - -  
12:44 PM 75.2 °F - 32.0 °F 21% 29.95 in 14.0 mi Calm Calm - N/A   Clear
1:43 PM 77.0 °F - 28.4 °F 17% 30.32 in 14.0 mi SE 6.9 mph - N/A   Clear
2:44 PM 77.0 °F - 23.0 °F 13% 30.28 in 14.0 mi NW 6.9 mph - N/A   Clear
3:52 PM 78.8 °F - 26.6 °F 15% 29.92 in 14.0 mi North 6.9 mph - N/A   Clear
3:55 PM 83 °F - 41 °F 13% 29.89 in 19 mi WSW 2.2 mph - -   Scattered Clouds
4:47 PM 78.8 °F - 24.8 °F 14% 30.21 in 14.0 mi West 9.2 mph - N/A   Clear
5:44 PM 80.6 °F - 24.8 °F 13% 30.20 in 14.0 mi North 5.8 mph - N/A   Clear
6:47 PM 78.8 °F - 24.8 °F 14% 29.93 in 14.0 mi NNW 8.1 mph - N/A   Clear
6:50 PM 79 °F - 40 °F 15% 29.77 in 19 mi WNW 2.2 mph - -   Scattered Clouds
7:43 PM 75.2 °F - 30.2 °F 19% 30.21 in 14.0 mi NE 2.3 mph - N/A   Clear
8:50 PM 68.0 °F - 30.2 °F 24% 30.23 in 14.0 mi NE 2.3 mph - N/A   Clear
9:50 PM 62.6 °F - 33.8 °F 34% 30.25 in 14.0 mi NE 2.3 mph - N/A   Clear
9:55 PM 68 °F - 42 °F 28% 29.74 in 9 mi NNE 2.2 mph - -  
10:48 PM 62.6 °F - 33.8 °F 34% 30.27 in 14.0 mi NE 11.5 mph - N/A   Clear